Time,TemperatureF,DewpointF,PressureIn,WindDirection,WindDirectionDegrees,WindSpeedMPH,WindSpeedGustMPH,Humidity,HourlyPrecipIn,Conditions,Clouds,dailyrainin,SoftwareType,DateUTC
2013-01-24 06:23:00,19.3,17.4,30.28,NE,53,2.0,2.0,92,0.00,,,0.00,Wunderground v.1.15,2013-01-24 14:23:00,
2013-01-24 06:28:00,19.5,17.6,30.28,NE,53,2.0,3.0,92,0.00,,,0.00,Wunderground v.1.15,2013-01-24 14:28:00,
2013-01-24 06:33:00,19.9,18.0,30.29,NE,53,2.0,3.0,92,0.00,,,0.00,Wunderground v.1.15,2013-01-24 14:33:00,
2013-01-24 06:38:00,19.5,17.3,30.29,NE,53,1.0,3.0,91,0.00,,,0.00,Wunderground v.1.15,2013-01-24 14:38:00,
2013-01-24 06:43:00,19.1,16.9,30.29,NE,53,1.0,2.0,91,0.00,,,0.00,Wunderground v.1.15,2013-01-24 14:43:00,
2013-01-24 06:48:00,19.7,17.8,30.29,NE,53,1.0,2.0,92,0.00,,,0.00,Wunderground v.1.15,2013-01-24 14:48:00,
2013-01-24 06:53:00,19.5,17.6,30.30,NE,53,2.0,2.0,92,0.00,,,0.00,Wunderground v.1.15,2013-01-24 14:53:00,
2013-01-24 06:58:00,19.3,17.1,30.30,NE,53,3.0,3.0,91,0.00,,,0.00,Wunderground v.1.15,2013-01-24 14:58:00,
2013-01-24 07:03:00,19.2,17.0,30.31,NE,53,1.0,2.0,91,0.00,,,0.00,Wunderground v.1.15,2013-01-24 15:03:00,
2013-01-24 07:08:00,19.7,17.8,30.30,NE,53,1.0,3.0,92,0.00,,,0.00,Wunderground v.1.15,2013-01-24 15:08:00,
2013-01-24 07:13:00,20.0,18.1,30.30,NE,53,1.0,2.0,92,0.00,,,0.00,Wunderground v.1.15,2013-01-24 15:13:00,
2013-01-24 07:18:00,20.5,18.8,30.31,NE,53,0.0,2.0,93,0.00,,,0.00,Wunderground v.1.15,2013-01-24 15:18:00,
2013-01-24 07:23:00,21.0,19.3,30.31,NE,53,0.0,1.0,93,0.00,,,0.00,Wunderground v.1.15,2013-01-24 15:23:00,
2013-01-24 07:28:00,21.3,19.6,30.31,NE,53,2.0,4.0,93,0.00,,,0.00,Wunderground v.1.15,2013-01-24 15:28:00,
2013-01-24 07:33:00,21.6,19.9,30.31,NE,53,0.0,1.0,93,0.00,,,0.00,Wunderground v.1.15,2013-01-24 15:33:00,
2013-01-24 07:38:00,21.5,19.5,30.31,NE,53,2.0,3.0,92,0.00,,,0.00,Wunderground v.1.15,2013-01-24 15:38:00,
2013-01-24 07:43:00,21.7,19.7,30.30,NE,53,2.0,2.0,92,0.00,,,0.00,Wunderground v.1.15,2013-01-24 15:43:00,
2013-01-24 07:48:00,22.2,20.5,30.31,NE,53,4.0,5.0,93,0.00,,,0.00,Wunderground v.1.15,2013-01-24 15:48:00,
2013-01-24 07:53:00,22.8,21.1,30.31,NE,47,2.0,4.0,93,0.00,,,0.00,Wunderground v.1.15,2013-01-24 15:53:00,
2013-01-24 07:58:00,23.0,23.0,30.31,NE,45,5.0,6.0,100,0.00,,,0.00,Wunderground v.1.15,2013-01-24 15:58:00,
2013-01-24 08:03:00,23.2,21.2,30.31,NE,38,3.0,4.0,92,0.00,,,0.00,Wunderground v.1.15,2013-01-24 16:03:00,
2013-01-24 08:08:00,23.3,21.3,30.32,NE,38,2.0,5.0,92,0.00,,,0.00,Wunderground v.1.15,2013-01-24 16:08:00,
2013-01-24 08:13:00,23.4,21.4,30.32,NE,38,3.0,3.0,92,0.00,,,0.00,Wunderground v.1.15,2013-01-24 16:13:00,
2013-01-24 08:18:00,23.4,21.4,30.32,NE,38,1.0,3.0,92,0.00,,,0.00,Wunderground v.1.15,2013-01-24 16:18:00,
2013-01-24 08:23:00,23.5,21.5,30.32,NE,38,1.0,1.0,92,0.00,,,0.00,Wunderground v.1.15,2013-01-24 16:23:00,
2013-01-24 08:28:00,23.3,21.1,30.32,NE,34,4.0,5.0,91,0.00,,,0.00,Wunderground v.1.15,2013-01-24 16:28:00,
2013-01-24 08:33:00,23.0,20.8,30.32,North,5,2.0,4.0,91,0.00,,,0.00,Wunderground v.1.15,2013-01-24 16:33:00,
2013-01-24 08:38:00,23.2,21.2,30.33,North,5,3.0,4.0,92,0.00,,,0.00,Wunderground v.1.15,2013-01-24 16:38:00,
2013-01-24 08:43:00,23.3,21.3,30.33,North,5,3.0,4.0,92,0.00,,,0.00,Wunderground v.1.15,2013-01-24 16:43:00,
2013-01-24 08:48:00,23.4,21.4,30.33,North,5,4.0,5.0,92,0.00,,,0.00,Wunderground v.1.15,2013-01-24 16:48:00,
2013-01-24 08:53:00,23.3,21.1,30.33,North,5,2.0,4.0,91,0.00,,,0.00,Wunderground v.1.15,2013-01-24 16:53:00,
2013-01-24 08:58:00,23.4,21.4,30.34,North,5,2.0,4.0,92,0.00,,,0.00,Wunderground v.1.15,2013-01-24 16:58:00,
2013-01-24 09:03:00,23.5,21.5,30.34,North,5,3.0,4.0,92,0.00,,,0.00,Wunderground v.1.15,2013-01-24 17:03:00,
2013-01-24 09:08:00,23.5,21.5,30.34,NW,315,4.0,8.0,92,0.00,,,0.00,Wunderground v.1.15,2013-01-24 17:08:00,
2013-01-24 09:13:00,23.4,21.4,30.35,NW,315,4.0,4.0,92,0.00,,,0.00,Wunderground v.1.15,2013-01-24 17:13:00,
2013-01-24 09:18:00,23.3,21.3,30.35,NW,315,5.0,5.0,92,0.00,,,0.00,Wunderground v.1.15,2013-01-24 17:18:00,
2013-01-24 09:23:00,23.3,21.3,30.34,NW,315,3.0,4.0,92,0.00,,,0.00,Wunderground v.1.15,2013-01-24 17:23:00,
2013-01-24 09:28:00,23.4,21.4,30.35,NW,315,5.0,5.0,92,0.00,,,0.00,Wunderground v.1.15,2013-01-24 17:28:00,
2013-01-24 09:33:00,23.5,21.5,30.34,NW,315,3.0,4.0,92,0.00,,,0.00,Wunderground v.1.15,2013-01-24 17:33:00,
2013-01-24 09:38:00,23.5,21.5,30.34,NW,315,3.0,5.0,92,0.00,,,0.00,Wunderground v.1.15,2013-01-24 17:38:00,
2013-01-24 09:43:00,23.6,21.6,30.34,NW,315,4.0,4.0,92,0.00,,,0.00,Wunderground v.1.15,2013-01-24 17:43:00,
2013-01-24 09:48:00,23.6,21.6,30.34,NW,315,3.0,5.0,92,0.00,,,0.00,Wunderground v.1.15,2013-01-24 17:48:00,
2013-01-24 09:53:00,23.8,21.8,30.34,NW,315,2.0,3.0,92,0.00,,,0.00,Wunderground v.1.15,2013-01-24 17:53:00,
2013-01-24 09:59:00,24.1,22.1,30.33,NW,315,3.0,4.0,92,0.00,,,0.00,Wunderground v.1.15,2013-01-24 17:59:00,
2013-01-24 10:04:00,24.0,22.0,30.34,NW,315,5.0,5.0,92,0.00,,,0.00,Wunderground v.1.15,2013-01-24 18:04:00,
2013-01-24 10:09:00,24.3,22.3,30.34,NW,315,4.0,5.0,92,0.00,,,0.00,Wunderground v.1.15,2013-01-24 18:09:00,
2013-01-24 10:14:00,24.4,22.4,30.34,NW,315,5.0,6.0,92,0.00,,,0.00,Wunderground v.1.15,2013-01-24 18:14:00,
2013-01-24 10:19:00,24.3,22.1,30.34,NW,315,5.0,7.0,91,0.00,,,0.00,Wunderground v.1.15,2013-01-24 18:19:00,
2013-01-24 10:24:00,24.3,22.1,30.34,WNW,303,7.0,7.0,91,0.00,,,0.00,Wunderground v.1.15,2013-01-24 18:24:00,
2013-01-24 10:29:00,24.3,22.3,30.34,WNW,303,6.0,7.0,92,0.00,,,0.00,Wunderground v.1.15,2013-01-24 18:29:00,
2013-01-24 10:34:00,24.3,22.3,30.34,WNW,303,5.0,5.0,92,0.00,,,0.00,Wunderground v.1.15,2013-01-24 18:34:00,
2013-01-24 10:39:00,24.3,22.3,30.34,WNW,303,4.0,6.0,92,0.00,,,0.00,Wunderground v.1.15,2013-01-24 18:39:00,
2013-01-24 10:44:00,24.4,22.4,30.34,WNW,303,4.0,4.0,92,0.00,,,0.00,Wunderground v.1.15,2013-01-24 18:44:00,
2013-01-24 10:49:00,24.6,22.6,30.34,WNW,303,3.0,5.0,92,0.00,,,0.00,Wunderground v.1.15,2013-01-24 18:49:00,
2013-01-24 10:54:00,24.9,22.9,30.34,WNW,303,1.0,3.0,92,0.00,,,0.00,Wunderground v.1.15,2013-01-24 18:54:00,
2013-01-24 10:59:00,25.2,23.2,30.34,WNW,303,0.0,3.0,92,0.00,,,0.00,Wunderground v.1.15,2013-01-24 18:59:00,
2013-01-24 11:04:00,25.6,23.6,30.34,WNW,303,2.0,2.0,92,0.00,,,0.00,Wunderground v.1.15,2013-01-24 19:04:00,
2013-01-24 11:09:00,25.6,23.6,30.34,WNW,303,3.0,5.0,92,0.00,,,0.00,Wunderground v.1.15,2013-01-24 19:09:00,
2013-01-24 11:14:00,25.6,23.6,30.34,WNW,303,2.0,4.0,92,0.00,,,0.00,Wunderground v.1.15,2013-01-24 19:14:00,
2013-01-24 11:19:00,25.7,23.4,30.34,WNW,303,5.0,5.0,91,0.00,,,0.00,Wunderground v.1.15,2013-01-24 19:19:00,
2013-01-24 11:24:00,25.7,23.4,30.34,WNW,303,2.0,3.0,91,0.00,,,0.00,Wunderground v.1.15,2013-01-24 19:24:00,
2013-01-24 11:29:00,25.8,23.8,30.33,WNW,303,0.0,3.0,92,0.00,,,0.00,Wunderground v.1.15,2013-01-24 19:29:00,
2013-01-24 11:34:00,26.0,23.7,30.33,WNW,303,2.0,2.0,91,0.00,,,0.00,Wunderground v.1.15,2013-01-24 19:34:00,
2013-01-24 11:39:00,26.2,23.9,30.33,WNW,303,1.0,2.0,91,0.00,,,0.00,Wunderground v.1.15,2013-01-24 19:39:00,
2013-01-24 11:44:00,26.3,24.0,30.33,WNW,303,4.0,5.0,91,0.00,,,0.00,Wunderground v.1.15,2013-01-24 19:44:00,
2013-01-24 11:49:00,25.8,23.3,30.32,North,351,5.0,7.0,90,0.00,,,0.00,Wunderground v.1.15,2013-01-24 19:49:00,
2013-01-24 11:54:00,25.7,23.4,30.32,North,351,1.0,4.0,91,0.00,,,0.00,Wunderground v.1.15,2013-01-24 19:54:00,
2013-01-24 11:59:00,25.8,23.5,30.32,North,351,2.0,6.0,91,0.00,,,0.00,Wunderground v.1.15,2013-01-24 19:59:00,
2013-01-24 12:04:00,25.9,23.6,30.32,North,351,1.0,2.0,91,0.00,,,0.00,Wunderground v.1.15,2013-01-24 20:04:00,
2013-01-24 12:09:00,26.2,23.9,30.31,North,351,2.0,4.0,91,0.00,,,0.00,Wunderground v.1.15,2013-01-24 20:09:00,
2013-01-24 12:14:00,26.2,23.9,30.31,North,351,3.0,4.0,91,0.00,,,0.00,Wunderground v.1.15,2013-01-24 20:14:00,
2013-01-24 12:19:00,26.1,23.6,30.31,North,351,2.0,4.0,90,0.00,,,0.00,Wunderground v.1.15,2013-01-24 20:19:00,
2013-01-24 12:24:00,26.1,23.6,30.31,North,351,0.0,2.0,90,0.00,,,0.00,Wunderground v.1.15,2013-01-24 20:24:00,
2013-01-24 12:29:00,26.3,23.8,30.30,North,351,0.0,2.0,90,0.00,,,0.00,Wunderground v.1.15,2013-01-24 20:29:00,
2013-01-24 12:34:00,26.5,24.2,30.30,North,351,3.0,4.0,91,0.00,,,0.00,Wunderground v.1.15,2013-01-24 20:34:00,
2013-01-24 12:39:00,26.3,23.8,30.30,North,351,2.0,6.0,90,0.00,,,0.00,Wunderground v.1.15,2013-01-24 20:39:00,
2013-01-24 12:44:00,26.2,23.7,30.30,North,351,5.0,5.0,90,0.00,,,0.00,Wunderground v.1.15,2013-01-24 20:44:00,
2013-01-24 12:49:00,26.1,23.6,30.30,North,351,2.0,6.0,90,0.00,,,0.00,Wunderground v.1.15,2013-01-24 20:49:00,
2013-01-24 12:54:00,26.1,23.6,30.30,North,351,0.0,3.0,90,0.00,,,0.00,Wunderground v.1.15,2013-01-24 20:54:00,
2013-01-24 12:59:00,26.4,23.9,30.30,North,351,0.0,3.0,90,0.00,,,0.00,Wunderground v.1.15,2013-01-24 20:59:00,
2013-01-24 13:04:00,26.4,23.9,30.30,North,351,2.0,3.0,90,0.00,,,0.00,Wunderground v.1.15,2013-01-24 21:04:00,
2013-01-24 13:09:00,26.3,23.8,30.29,North,351,2.0,4.0,90,0.00,,,0.00,Wunderground v.1.15,2013-01-24 21:09:00,
2013-01-24 13:14:00,26.5,24.0,30.30,North,351,0.0,1.0,90,0.00,,,0.00,Wunderground v.1.15,2013-01-24 21:14:00,
2013-01-24 13:19:00,26.7,24.2,30.29,North,351,0.0,1.0,90,0.00,,,0.00,Wunderground v.1.15,2013-01-24 21:19:00,
2013-01-24 13:24:00,26.7,23.9,30.30,North,351,0.0,0.0,89,0.00,,,0.00,Wunderground v.1.15,2013-01-24 21:24:00,
2013-01-24 13:29:00,26.8,24.0,30.30,North,351,0.0,0.0,89,0.00,,,0.00,Wunderground v.1.15,2013-01-24 21:29:00,
2013-01-24 13:34:00,26.8,24.0,30.30,North,351,2.0,2.0,89,0.00,,,0.00,Wunderground v.1.15,2013-01-24 21:34:00,
2013-01-24 13:39:00,26.9,24.1,30.29,North,351,0.0,3.0,89,0.00,,,0.00,Wunderground v.1.15,2013-01-24 21:39:00,
2013-01-24 13:44:00,27.2,24.4,30.29,North,355,2.0,7.0,89,0.00,,,0.00,Wunderground v.1.15,2013-01-24 21:44:00,
2013-01-24 13:49:00,27.3,24.5,30.29,North,9,7.0,8.0,89,0.00,,,0.00,Wunderground v.1.15,2013-01-24 21:49:00,
2013-01-24 13:54:00,27.2,24.4,30.29,NNE,32,9.0,9.0,89,0.00,,,0.00,Wunderground v.1.15,2013-01-24 21:54:00,
2013-01-24 13:59:00,27.1,24.3,30.29,NE,42,6.0,10.0,89,0.00,,,0.00,Wunderground v.1.15,2013-01-24 21:59:00,
2013-01-24 14:04:00,27.0,24.2,30.29,NE,43,5.0,7.0,89,0.00,,,0.00,Wunderground v.1.15,2013-01-24 22:04:00,
2013-01-24 14:09:00,27.1,24.3,30.29,NE,47,7.0,10.0,89,0.00,,,0.00,Wunderground v.1.15,2013-01-24 22:09:00,
2013-01-24 14:14:00,27.0,23.9,30.28,NE,48,4.0,6.0,88,0.00,,,0.00,Wunderground v.1.15,2013-01-24 22:14:00,
2013-01-24 14:19:00,27.2,24.4,30.28,NE,45,5.0,10.0,89,0.00,,,0.00,Wunderground v.1.15,2013-01-24 22:19:00,
2013-01-24 14:24:00,27.4,24.3,30.28,NE,45,5.0,5.0,88,0.00,,,0.00,Wunderground v.1.15,2013-01-24 22:24:00,
2013-01-24 14:29:00,27.5,24.4,30.28,NE,45,2.0,6.0,88,0.00,,,0.00,Wunderground v.1.15,2013-01-24 22:29:00,
2013-01-24 14:34:00,27.6,24.5,30.28,NE,44,4.0,5.0,88,0.00,,,0.00,Wunderground v.1.15,2013-01-24 22:34:00,
2013-01-24 14:39:00,27.8,24.7,30.28,NE,48,8.0,11.0,88,0.00,,,0.00,Wunderground v.1.15,2013-01-24 22:39:00,
2013-01-24 14:44:00,27.8,24.4,30.27,NE,49,8.0,10.0,87,0.00,,,0.00,Wunderground v.1.15,2013-01-24 22:44:00,
2013-01-24 14:49:00,27.9,24.5,30.27,NE,49,5.0,10.0,87,0.00,,,0.00,Wunderground v.1.15,2013-01-24 22:49:00,
2013-01-24 14:54:00,27.9,24.5,30.28,NE,49,6.0,7.0,87,0.00,,,0.00,Wunderground v.1.15,2013-01-24 22:54:00,
2013-01-24 14:59:00,28.0,24.9,30.28,NE,49,4.0,7.0,88,0.00,,,0.00,Wunderground v.1.15,2013-01-24 22:59:00,
2013-01-24 15:04:00,28.0,24.9,30.28,NE,49,6.0,6.0,88,0.00,,,0.00,Wunderground v.1.15,2013-01-24 23:04:00,
2013-01-24 15:09:00,27.9,24.8,30.28,NE,49,6.0,8.0,88,0.00,,,0.00,Wunderground v.1.15,2013-01-24 23:09:00,
2013-01-24 15:14:00,27.8,24.4,30.28,NE,47,4.0,7.0,87,0.00,,,0.00,Wunderground v.1.15,2013-01-24 23:14:00,
2013-01-24 15:19:00,28.0,24.9,30.28,NE,46,3.0,7.0,88,0.00,,,0.00,Wunderground v.1.15,2013-01-24 23:19:00,
2013-01-24 15:24:00,28.2,25.1,30.29,NE,46,3.0,5.0,88,0.00,,,0.00,Wunderground v.1.15,2013-01-24 23:24:00,
2013-01-24 15:29:00,28.5,25.1,30.29,NE,46,0.0,5.0,87,0.00,,,0.00,Wunderground v.1.15,2013-01-24 23:29:00,
2013-01-24 15:34:00,28.5,25.1,30.28,NE,46,3.0,5.0,87,0.00,,,0.00,Wunderground v.1.15,2013-01-24 23:34:00,
2013-01-24 15:39:00,28.6,25.2,30.28,NE,46,5.0,5.0,87,0.00,,,0.00,Wunderground v.1.15,2013-01-24 23:39:00,
2013-01-24 15:44:00,28.2,24.6,30.28,NE,46,6.0,7.0,86,0.00,,,0.00,Wunderground v.1.15,2013-01-24 23:44:00,
2013-01-24 15:49:00,28.1,24.7,30.27,NE,44,7.0,8.0,87,0.00,,,0.00,Wunderground v.1.15,2013-01-24 23:49:00,
2013-01-24 15:54:00,27.9,24.5,30.27,NE,44,5.0,7.0,87,0.00,,,0.00,Wunderground v.1.15,2013-01-24 23:54:00,
2013-01-24 15:59:00,27.8,24.7,30.27,NE,40,6.0,8.0,88,0.00,,,0.00,Wunderground v.1.15,2013-01-24 23:59:00,
2013-01-24 16:04:00,27.7,24.6,30.28,NE,35,4.0,8.0,88,0.00,,,0.00,Wunderground v.1.15,2013-01-25 00:04:00,
2013-01-24 16:09:00,27.7,24.6,30.28,NE,35,5.0,8.0,88,0.00,,,0.00,Wunderground v.1.15,2013-01-25 00:09:00,
2013-01-24 16:15:00,27.6,24.5,30.28,NE,34,5.0,6.0,88,0.00,,,0.00,Wunderground v.1.15,2013-01-25 00:15:00,
2013-01-24 16:20:00,27.5,24.4,30.28,NE,34,5.0,7.0,88,0.00,,,0.00,Wunderground v.1.15,2013-01-25 00:20:00,
2013-01-24 16:25:00,27.4,24.3,30.28,NNE,33,5.0,6.0,88,0.00,,,0.00,Wunderground v.1.15,2013-01-25 00:25:00,
2013-01-24 16:30:00,27.3,24.2,30.27,NNE,33,3.0,6.0,88,0.00,,,0.00,Wunderground v.1.15,2013-01-25 00:30:00,
2013-01-24 16:34:00,27.4,24.3,30.27,NNE,33,2.0,3.0,88,0.00,,,0.00,Wunderground v.1.15,2013-01-25 00:34:00,
2013-01-24 16:39:00,27.5,24.7,30.27,NNE,33,2.0,3.0,89,0.00,,,0.00,Wunderground v.1.15,2013-01-25 00:39:00,
2013-01-24 16:44:00,27.5,24.4,30.26,NNE,33,2.0,4.0,88,0.00,,,0.00,Wunderground v.1.15,2013-01-25 00:44:00,
2013-01-24 16:50:00,27.5,24.4,30.26,NNE,33,2.0,4.0,88,0.00,,,0.00,Wunderground v.1.15,2013-01-25 00:50:00,
2013-01-24 16:55:00,27.4,24.3,30.26,NNE,33,2.0,3.0,88,0.00,,,0.00,Wunderground v.1.15,2013-01-25 00:55:00,
2013-01-24 17:00:00,27.4,24.3,30.26,NNE,33,2.0,3.0,88,0.00,,,0.00,Wunderground v.1.15,2013-01-25 01:00:00,
2013-01-24 17:05:00,27.5,24.7,30.27,NNE,33,2.0,3.0,89,0.00,,,0.00,Wunderground v.1.15,2013-01-25 01:05:00,
2013-01-24 17:10:00,27.4,24.3,30.26,NNE,33,2.0,5.0,88,0.00,,,0.00,Wunderground v.1.15,2013-01-25 01:10:00,
2013-01-24 17:15:00,27.3,24.2,30.26,NNE,33,0.0,2.0,88,0.00,,,0.00,Wunderground v.1.15,2013-01-25 01:15:00,
2013-01-24 17:20:00,27.3,24.5,30.26,NNE,33,0.0,2.0,89,0.00,,,0.00,Wunderground v.1.15,2013-01-25 01:20:00,
2013-01-24 17:25:00,27.2,24.4,30.26,NNE,33,5.0,5.0,89,0.00,,,0.00,Wunderground v.1.15,2013-01-25 01:25:00,
2013-01-24 17:30:00,27.1,24.3,30.26,NNE,33,3.0,5.0,89,0.00,,,0.00,Wunderground v.1.15,2013-01-25 01:30:00,
2013-01-24 17:35:00,27.0,24.2,30.27,NNE,33,5.0,6.0,89,0.00,,,0.00,Wunderground v.1.15,2013-01-25 01:35:00,
2013-01-24 17:40:00,27.0,24.2,30.26,NNE,32,2.0,7.0,89,0.00,,,0.00,Wunderground v.1.15,2013-01-25 01:40:00,
2013-01-24 17:45:00,26.9,24.1,30.26,NNE,32,2.0,3.0,89,0.00,,,0.00,Wunderground v.1.15,2013-01-25 01:45:00,
2013-01-24 17:50:00,26.9,24.4,30.26,NNE,28,4.0,5.0,90,0.00,,,0.00,Wunderground v.1.15,2013-01-25 01:50:00,
2013-01-24 17:55:00,27.0,24.5,30.26,NNE,28,3.0,5.0,90,0.00,,,0.00,Wunderground v.1.15,2013-01-25 01:55:00,
2013-01-24 18:00:00,27.0,24.5,30.26,NNE,27,2.0,6.0,90,0.00,,,0.00,Wunderground v.1.15,2013-01-25 02:00:00,
2013-01-24 18:05:00,26.9,24.4,30.26,NNE,27,3.0,5.0,90,0.00,,,0.00,Wunderground v.1.15,2013-01-25 02:05:00,
2013-01-24 18:10:00,26.9,24.4,30.26,NNE,27,3.0,5.0,90,0.00,,,0.00,Wunderground v.1.15,2013-01-25 02:10:00,
2013-01-24 18:15:00,26.9,24.4,30.26,NNE,26,5.0,6.0,90,0.00,,,0.00,Wunderground v.1.15,2013-01-25 02:15:00,
2013-01-24 18:20:00,26.9,24.4,30.26,NNE,22,4.0,6.0,90,0.00,,,0.00,Wunderground v.1.15,2013-01-25 02:20:00,
2013-01-24 18:25:00,26.9,24.4,30.26,NNE,13,4.0,6.0,90,0.00,,,0.00,Wunderground v.1.15,2013-01-25 02:25:00,
2013-01-24 18:30:00,26.9,24.4,30.26,North,355,3.0,7.0,90,0.00,,,0.00,Wunderground v.1.15,2013-01-25 02:30:00,
2013-01-24 18:35:00,26.9,24.4,30.26,North,355,4.0,5.0,90,0.00,,,0.00,Wunderground v.1.15,2013-01-25 02:35:00,
2013-01-24 18:40:00,26.9,24.4,30.26,North,355,1.0,5.0,90,0.00,,,0.00,Wunderground v.1.15,2013-01-25 02:40:00,
2013-01-24 18:45:00,27.0,24.5,30.26,North,355,4.0,4.0,90,0.00,,,0.00,Wunderground v.1.15,2013-01-25 02:45:00,
2013-01-24 18:50:00,26.9,24.4,30.27,North,355,4.0,6.0,90,0.00,,,0.00,Wunderground v.1.15,2013-01-25 02:50:00,
2013-01-24 18:55:00,27.0,24.5,30.26,North,355,5.0,6.0,90,0.00,,,0.00,Wunderground v.1.15,2013-01-25 02:55:00,
2013-01-24 19:00:00,27.0,24.5,30.26,North,355,3.0,6.0,90,0.00,,,0.00,Wunderground v.1.15,2013-01-25 03:00:00,
2013-01-24 19:05:00,27.1,24.6,30.26,North,355,2.0,4.0,90,0.00,,,0.00,Wunderground v.1.15,2013-01-25 03:05:00,
2013-01-24 19:10:00,27.1,24.6,30.26,North,355,3.0,5.0,90,0.00,,,0.00,Wunderground v.1.15,2013-01-25 03:10:00,
2013-01-24 19:15:00,27.2,24.7,30.26,North,355,3.0,5.0,90,0.00,,,0.00,Wunderground v.1.15,2013-01-25 03:15:00,
2013-01-24 19:20:00,27.1,24.6,30.26,North,349,5.0,7.0,90,0.00,,,0.00,Wunderground v.1.15,2013-01-25 03:20:00,
2013-01-24 19:25:00,27.2,24.7,30.26,NNW,348,3.0,5.0,90,0.00,,,0.00,Wunderground v.1.15,2013-01-25 03:25:00,
2013-01-24 19:30:00,27.2,24.7,30.25,NNW,348,2.0,5.0,90,0.00,,,0.00,Wunderground v.1.15,2013-01-25 03:30:00,
2013-01-24 19:35:00,27.3,24.8,30.24,NNW,348,0.0,2.0,90,0.00,,,0.00,Wunderground v.1.15,2013-01-25 03:35:00,
2013-01-24 19:40:00,27.8,25.5,30.23,NNW,348,0.0,2.0,91,0.00,,,0.00,Wunderground v.1.15,2013-01-25 03:40:00,
2013-01-24 19:45:00,27.9,25.3,30.23,NNW,348,0.0,0.0,90,0.00,,,0.00,Wunderground v.1.15,2013-01-25 03:45:00,
2013-01-24 19:50:00,27.8,25.0,30.24,NNW,348,2.0,3.0,89,0.00,,,0.00,Wunderground v.1.15,2013-01-25 03:50:00,
2013-01-24 19:55:00,27.6,25.1,30.24,NNW,348,4.0,4.0,90,0.00,,,0.00,Wunderground v.1.15,2013-01-25 03:55:00,
2013-01-24 20:00:00,27.5,25.0,30.24,NNW,348,3.0,4.0,90,0.00,,,0.00,Wunderground v.1.15,2013-01-25 04:00:00,
2013-01-24 20:05:00,27.5,25.0,30.24,NNW,348,3.0,4.0,90,0.00,,,0.00,Wunderground v.1.15,2013-01-25 04:05:00,
2013-01-24 20:10:00,27.5,25.0,30.24,NNW,348,2.0,4.0,90,0.00,,,0.00,Wunderground v.1.15,2013-01-25 04:10:00,
2013-01-24 20:15:00,27.6,25.1,30.23,NNW,348,2.0,4.0,90,0.00,,,0.00,Wunderground v.1.15,2013-01-25 04:15:00,
2013-01-24 20:20:00,27.6,25.1,30.23,NNW,348,2.0,4.0,90,0.00,,,0.00,Wunderground v.1.15,2013-01-25 04:20:00,
2013-01-24 20:25:00,27.6,25.1,30.23,NNW,348,1.0,2.0,90,0.00,,,0.00,Wunderground v.1.15,2013-01-25 04:25:00,
2013-01-24 20:30:00,27.7,25.4,30.23,NNW,348,2.0,2.0,91,0.00,,,0.00,Wunderground v.1.15,2013-01-25 04:30:00,
2013-01-24 20:35:00,27.8,25.5,30.23,NNW,348,2.0,2.0,91,0.00,,,0.00,Wunderground v.1.15,2013-01-25 04:35:00,
2013-01-24 20:40:00,27.8,25.5,30.23,NNW,348,1.0,3.0,91,0.00,,,0.00,Wunderground v.1.15,2013-01-25 04:40:00,
2013-01-24 20:45:00,27.8,25.5,30.23,NNW,348,2.0,3.0,91,0.00,,,0.00,Wunderground v.1.15,2013-01-25 04:45:00,
2013-01-24 20:50:00,27.8,25.5,30.22,NNW,348,2.0,4.0,91,0.00,,,0.00,Wunderground v.1.15,2013-01-25 04:50:00,
2013-01-24 20:55:00,27.9,25.6,30.23,NNW,348,2.0,3.0,91,0.00,,,0.00,Wunderground v.1.15,2013-01-25 04:55:00,
2013-01-24 21:00:00,27.9,25.6,30.23,NNW,348,2.0,4.0,91,0.00,,,0.00,Wunderground v.1.15,2013-01-25 05:00:00,
2013-01-24 21:05:00,27.8,25.5,30.23,NNW,348,1.0,3.0,91,0.00,,,0.00,Wunderground v.1.15,2013-01-25 05:05:00,
2013-01-24 21:10:00,27.8,25.5,30.23,NNW,348,0.0,3.0,91,0.00,,,0.00,Wunderground v.1.15,2013-01-25 05:10:00,
2013-01-24 21:15:00,27.9,25.6,30.22,NNW,348,0.0,1.0,91,0.00,,,0.00,Wunderground v.1.15,2013-01-25 05:15:00,
2013-01-24 21:20:00,28.0,26.0,30.23,NNW,348,0.0,1.0,92,0.00,,,0.00,Wunderground v.1.15,2013-01-25 05:20:00,
2013-01-24 21:25:00,28.2,26.2,30.23,NNW,348,0.0,0.0,92,0.00,,,0.00,Wunderground v.1.15,2013-01-25 05:25:00,
2013-01-24 21:30:00,28.2,25.9,30.23,NNW,348,0.0,0.0,91,0.00,,,0.00,Wunderground v.1.15,2013-01-25 05:30:00,
2013-01-24 21:35:00,28.3,26.0,30.23,NNW,348,0.0,1.0,91,0.00,,,0.00,Wunderground v.1.15,2013-01-25 05:35:00,
2013-01-24 21:40:00,28.3,26.0,30.23,NNW,348,0.0,1.0,91,0.00,,,0.00,Wunderground v.1.15,2013-01-25 05:40:00,
2013-01-24 21:45:00,28.3,26.0,30.23,NNW,348,0.0,2.0,91,0.00,,,0.00,Wunderground v.1.15,2013-01-25 05:45:00,
2013-01-24 21:50:00,28.5,26.2,30.23,NNW,348,0.0,2.0,91,0.00,,,0.00,Wunderground v.1.15,2013-01-25 05:50:00,
2013-01-24 21:55:00,28.6,26.3,30.23,NNW,348,0.0,0.0,91,0.00,,,0.00,Wunderground v.1.15,2013-01-25 05:55:00,
2013-01-24 22:00:00,29.0,26.7,30.22,NNW,348,0.0,0.0,91,0.00,,,0.00,Wunderground v.1.15,2013-01-25 06:00:00,
2013-01-24 22:05:00,29.0,26.7,30.22,NNW,348,0.0,0.0,91,0.00,,,0.00,Wunderground v.1.15,2013-01-25 06:05:00,
2013-01-24 22:10:00,28.7,26.1,30.22,NNW,348,0.0,0.0,90,0.00,,,0.00,Wunderground v.1.15,2013-01-25 06:10:00,
2013-01-24 22:15:00,28.5,26.2,30.22,NNW,348,0.0,0.0,91,0.00,,,0.00,Wunderground v.1.15,2013-01-25 06:15:00,
2013-01-24 22:20:00,28.5,26.2,30.22,NNW,348,2.0,2.0,91,0.00,,,0.00,Wunderground v.1.15,2013-01-25 06:20:00,
2013-01-24 22:25:00,28.3,26.0,30.22,NNW,348,0.0,2.0,91,0.00,,,0.00,Wunderground v.1.15,2013-01-25 06:25:00,
2013-01-24 22:30:00,28.2,25.9,30.22,NNW,348,1.0,2.0,91,0.00,,,0.00,Wunderground v.1.15,2013-01-25 06:30:00,
2013-01-24 22:35:00,28.1,25.8,30.22,NNW,348,1.0,3.0,91,0.00,,,0.00,Wunderground v.1.15,2013-01-25 06:35:00,
2013-01-24 22:40:00,28.1,26.1,30.22,NNW,348,0.0,3.0,92,0.00,,,0.00,Wunderground v.1.15,2013-01-25 06:40:00,
2013-01-24 22:45:00,28.2,26.2,30.22,NNW,348,1.0,2.0,92,0.00,,,0.00,Wunderground v.1.15,2013-01-25 06:45:00,
2013-01-24 22:50:00,28.4,26.4,30.22,NW,318,2.0,7.0,92,0.00,,,0.00,Wunderground v.1.15,2013-01-25 06:50:00,
2013-01-24 22:55:00,28.4,26.4,30.23,NW,318,1.0,3.0,92,0.00,,,0.00,Wunderground v.1.15,2013-01-25 06:55:00,
2013-01-24 23:00:00,28.4,26.4,30.22,NW,318,0.0,3.0,92,0.00,,,0.00,Wunderground v.1.15,2013-01-25 07:00:00,
2013-01-24 23:05:00,28.5,26.5,30.22,NW,318,0.0,0.0,92,0.00,,,0.00,Wunderground v.1.15,2013-01-25 07:05:00,
2013-01-24 23:10:00,28.5,26.5,30.22,NW,318,0.0,2.0,92,0.00,,,0.00,Wunderground v.1.15,2013-01-25 07:10:00,
2013-01-24 23:15:00,28.5,26.5,30.22,NW,318,0.0,0.0,92,0.00,,,0.00,Wunderground v.1.15,2013-01-25 07:15:00,
2013-01-24 23:20:00,28.5,26.5,30.22,NW,318,0.0,0.0,92,0.00,,,0.00,Wunderground v.1.15,2013-01-25 07:20:00,
2013-01-24 23:25:00,28.4,26.4,30.22,NW,318,0.0,0.0,92,0.00,,,0.00,Wunderground v.1.15,2013-01-25 07:25:00,
2013-01-24 23:30:00,28.4,26.4,30.22,NW,318,0.0,0.0,92,0.00,,,0.00,Wunderground v.1.15,2013-01-25 07:30:00,
2013-01-24 23:35:00,29.1,27.3,30.22,NW,318,0.0,0.0,93,0.00,,,0.00,Wunderground v.1.15,2013-01-25 07:35:00,
2013-01-24 23:40:00,29.7,27.9,30.22,NW,318,0.0,0.0,93,0.00,,,0.00,Wunderground v.1.15,2013-01-25 07:40:00,
2013-01-24 23:45:00,30.1,28.1,30.22,NW,318,0.0,0.0,92,0.00,,,0.00,Wunderground v.1.15,2013-01-25 07:45:00,
2013-01-24 23:50:00,30.1,27.8,30.22,NW,318,0.0,0.0,91,0.00,,,0.00,Wunderground v.1.15,2013-01-25 07:50:00,
2013-01-24 23:54:00,29.7,27.1,30.22,NW,318,1.0,1.0,90,0.00,,,0.00,Wunderground v.1.15,2013-01-25 07:54:00,
2013-01-24 23:56:00,29.6,27.0,30.22,NW,318,0.0,1.0,90,0.00,,,0.00,Wunderground v.1.15,2013-01-25 07:56:00,
2013-01-24 23:57:00,29.5,26.9,30.22,NW,318,0.0,1.0,90,0.00,,,0.00,Wunderground v.1.15,2013-01-25 07:57:00,
2013-01-24 23:58:00,29.4,26.8,30.22,NW,318,0.0,1.0,90,0.00,,,0.00,Wunderground v.1.15,2013-01-25 07:58:00,